Location: Arpaise
(41.0333°N, 14.7333°E)
Time: 22:09:35
(UTC+00:00)

Cosmos 846 Rocket - Pass Details

Date: 20 January 2021
Orbit: 948 x 991 km, 82.9° (Epoch: 06 March)

Event Time Altitude Azimuth Distance (km) Brightness Sun altitude
Rises 20:17:29 0° 241° (WSW) 3,672 8.9 -47.4°
Reaches altitude 10° 20:21:36 10° 267° (W) 2,720 8.3 -48.2°
Maximum altitude 20:24:28 13° 295° (WNW) 2,477 8.1 -48.7°
Enters shadow 20:24:29 13° 295° (WNW) 2,477 8.1 -48.7°
